STARLINK-3951 (52533 NORAD) Tracking and Keplerian Element Data
This shows tracking and keplerian element data for the satellite.
Feedback or suggestion? Click here.
Element | Value |
Catalog | 52533 |
Name | STARLINK-3951 |
Epoch Orbit | 970 |
Epoch Day | 192.91667824 |
Epoch Year | 2022 |
RAAN | 10.1445 |
Inclination | 53.2175 |
Eccentricity | 0.0001612 |
Argument of Perigee | 46.4654 |
Mean Anonmoly | 307.0812 |
Mean Motion | 15.11383083 |
Decay Rate | -0.00719521 |
L1 | 1 52533U 22051A 22192.91667824 -.00719521 00000+0 -45268-1 0 9999 |
L2 | 2 52533 53.2175 10.1445 0001612 46.4654 307.0812 15.11383083 9707 |
Live tracking and technical data element details for STARLINK-3951 (NORAD 52533). STARLINK-3951 can be tracked NOW for your location showing map with azimuth and elevation plus other details from your city location.
Track the satellite on the map from your city or location and see movement details for azimuth, elevation, latitude, longitude, range, height, and movement on the map or in text.
IsCatalogInMostPopularTable: catalog: 52533, numindb: 8
Update: records affected: 1
GetName: 52533 STARLINK-3951
Hit Count: updated at: Sun, 14 Aug 2022 01:15:07 GMT